DM5RC Weather Reports


time (UTC)temp
C
wind
direction
speed
KPH
gust
KPH
rain 1hr
cm
rain 24hr
cm
rain mn
cm
humidity
%
barometer
mb
20260903084325 20 262 4.8 17.7 0.00 0.00 0.00 74 1017.8
20260903083828 19 240 8.0 17.7 0.00 0.00 0.00 73 1017.9
20260903083330 19 207 6.4 17.7 0.00 0.00 0.00 74 1018.0
20260903082832 19 261 6.4 17.7 0.00 0.00 0.00 75 1018.1
20260903082314 19 241 6.4 17.7 0.00 0.00 0.00 75 1018.1
20260903081817 19 222 11.3 20.9 0.00 0.00 0.00 75 1018.0
20260903081320 19 281 9.7 20.9 0.00 0.00 0.00 75 1017.9
20260903080822 18 250 9.7 17.7 0.00 0.00 0.00 76 1017.9
20260903080326 18 248 8.0 17.7 0.00 0.00 0.00 76 1017.8
20260903075825 18 272 8.0 16.1 0.00 0.00 0.00 77 1017.7
20260903075327 18 274 9.7 16.1 0.00 0.00 0.00 77 1017.8
20260903074828 18 212 6.4 16.1 0.00 0.00 0.00 78 1017.8
20260903074328 18 264 6.4 14.5 0.00 0.00 0.00 78 1017.7
20260903073829 18 259 4.8 14.5 0.00 0.00 0.00 78 1017.6
20260903073349 18 262 6.4 17.7 0.00 0.00 0.00 79 1017.9
20260903072850 17 231 8.0 17.7 0.00 0.00 0.00 80 1018.0
20260903072329 17 280 6.4 16.1 0.00 0.00 0.00 80 1018.0
20260903071830 18 224 8.0 12.9 0.00 0.00 0.00 79 1017.8
20260903071351 17 147 3.2 14.5 0.00 0.00 0.00 82 1017.8
20260903070830 17 210 6.4 12.9 0.00 0.00 0.00 82 1017.9
20260903070321 16 203 8.0 12.9 0.00 0.00 0.00 83 1017.9
20260903065821 16 262 4.8 11.3 0.00 0.00 0.00 84 1017.9
20260903065322 16 277 4.8 8.0 0.00 0.00 0.00 85 1018.0
20260903064825 16 199 1.6 6.4 0.00 0.00 0.00 85 1018.0
20260903064330 16 259 3.2 11.3 0.00 0.00 0.00 85 1018.1
20260903063814 16 206 4.8 11.3 0.00 0.00 0.00 85 1018.0
20260903063315 16 194 3.2 11.3 0.00 0.00 0.00 85 1018.0
20260903062818 16 209 3.2 8.0 0.00 0.00 0.00 85 1018.2
20260903062319 16 243 4.8 8.0 0.00 0.00 0.00 85 1018.2
20260903061819 16 270 3.2 8.0 0.00 0.00 0.00 86 1018.2
20260903061317 15 224 4.8 8.0 0.00 0.00 0.00 86 1018.2
20260903060838 15 256 3.2 8.0 0.00 0.00 0.00 86 1018.3
20260903060337 15 231 4.8 8.0 0.00 0.00 0.00 87 1018.2
20260903055817 15 259 3.2 12.9 0.00 0.00 0.00 87 1018.4
20260903055317 15 219 6.4 12.9 0.00 0.00 0.00 87 1018.3
20260903054817 15 228 3.2 9.7 0.00 0.00 0.00 87 1018.2
20260903054319 15 226 6.4 9.7 0.00 0.00 0.00 87 1018.1
20260903053822 15 208 3.2 8.0 0.00 0.00 0.00 87 1018.1
20260903053323 15 249 3.2 9.7 0.00 0.00 0.00 87 1018.2
20260903052827 15 270 4.8 11.3 0.00 0.00 0.00 87 1018.1
20260903052349 15 233 4.8 11.3 0.00 0.00 0.00 87 1018.1
20260903051831 15 236 4.8 9.7 0.00 0.00 0.00 88 1018.2
20260903051334 15 234 4.8 11.3 0.00 0.00 0.00 88 1018.2
20260903050848 14 255 3.2 9.7 0.00 0.00 0.00 88 1018.1
20260903050325 14 269 3.2 9.7 0.00 0.00 0.00 88 1018.1
20260903045812 14 290 4.8 8.0 0.00 0.00 0.00 88 1018.1
20260903045316 14 191 3.2 8.0 0.00 0.00 0.00 88 1018.0
20260903044817 14 230 3.2 6.4 0.00 0.00 0.00 88 1018.0
20260903044336 14 237 3.2 6.4 0.00 0.00 0.00 88 1018.0
20260903043816 14 270 4.8 6.4 0.00 0.00 0.00 87 1018.0
20260903043318 14 246 3.2 6.4 0.00 0.00 0.00 87 1018.0
20260903042821 14 230 3.2 8.0 0.00 0.00 0.00 87 1018.0
20260903042322 14 266 3.2 8.0 0.00 0.00 0.00 87 1018.0
20260903041823 14 233 3.2 6.4 0.00 0.00 0.00 87 1017.9
20260903041325 14 239 3.2 6.4 0.00 0.00 0.00 86 1017.9
20260903040825 15 264 3.2 8.0 0.00 0.00 0.00 86 1017.9
20260903035825 15 256 4.8 9.7 0.00 0.00 0.00 86 1018.2
20260903035326 15 224 4.8 9.7 0.00 0.00 0.00 85 1018.2
20260903034826 15 256 3.2 8.0 0.00 0.00 0.00 85 1018.1
20260903034327 15 226 4.8 11.3 0.00 0.00 0.00 85 1018.0
20260903033829 15 280 4.8 6.4 0.00 0.00 0.00 85 1018.1
20260903033329 15 264 3.2 6.4 0.00 0.00 0.00 85 1018.0
20260903032852 15 274 3.2 8.0 0.00 0.00 0.00 85 1018.0
20260903032315 15 264 4.8 8.0 0.00 0.00 0.00 85 1018.0
20260903031840 15 269 4.8 8.0 0.00 0.00 0.00 85 1018.0
20260903031322 15 273 4.8 9.7 0.00 0.00 0.00 85 1018.0
20260903030816 15 252 6.4 11.3 0.00 0.00 0.00 85 1018.0
20260903030316 15 267 6.4 12.9 0.00 0.00 0.00 85 1018.0
20260903025817 15 279 6.4 12.9 0.00 0.00 0.00 85 1018.1
20260903025337 15 268 4.8 9.7 0.00 0.00 0.00 85 1018.0
20260903024815 15 274 4.8 11.3 0.00 0.00 0.00 85 1018.0
20260903024316 15 262 4.8 12.9 0.00 0.00 0.00 85 1018.0
20260903023835 15 273 4.8 12.9 0.00 0.00 0.00 86 1018.0
20260903023335 15 271 6.4 11.3 0.00 0.00 0.00 86 1018.0
20260903022815 15 270 4.8 8.0 0.00 0.00 0.00 87 1018.0
20260903022317 15 254 4.8 6.4 0.00 0.00 0.00 87 1018.0
20260903021820 15 273 3.2 6.4 0.00 0.00 0.00 87 1018.1
20260903021343 15 264 4.8 8.0 0.00 0.00 0.00 87 1018.1
20260903020822 15 272 4.8 8.0 0.00 0.00 0.00 87 1018.1
20260903020325 15 241 3.2 6.4 0.00 0.00 0.00 87 1018.1
20260903015828 15 259 3.2 8.0 0.00 0.00 0.00 87 1018.1
20260903015330 15 262 4.8 8.0 0.00 0.00 0.00 87 1018.2
20260903014812 15 257 4.8 8.0 0.00 0.00 0.00 87 1018.2
20260903014313 15 264 3.2 4.8 0.00 0.00 0.00 87 1018.2
20260903013814 15 255 3.2 6.4 0.00 0.00 0.00 87 1018.1
20260903013316 15 261 3.2 6.4 0.00 0.00 0.00 87 1018.1
20260903012818 15 274 3.2 6.4 0.00 0.00 0.00 86 1018.1
20260903012321 15 250 3.2 8.0 0.00 0.00 0.00 86 1018.2
20260903011823 15 250 4.8 8.0 0.00 0.00 0.00 86 1018.2
20260903011345 15 269 3.2 6.4 0.00 0.00 0.00 86 1018.2
20260903010827 15 269 3.2 6.4 0.00 0.00 0.00 86 1018.2
20260903010329 15 268 1.6 6.4 0.00 0.00 0.00 86 1018.2
20260903005830 15 268 3.2 6.4 0.00 0.00 0.00 86 1018.2
20260903005331 15 258 1.6 4.8 0.00 0.00 0.00 85 1018.3
20260903004832 15 269 3.2 4.8 0.00 0.00 0.00 85 1018.3
20260903004313 15 264 3.2 6.4 0.00 0.00 0.00 85 1018.3
20260903003817 15 269 3.2 6.4 0.00 0.00 0.00 85 1018.3
20260903003323 15 273 4.8 6.4 0.00 0.00 0.00 85 1018.2
20260903002828 15 272 3.2 9.7 0.00 0.00 0.00 86 1018.2
20260903002314 15 273 4.8 9.7 0.00 0.00 0.00 86 1018.2
20260903001817 15 265 1.6 3.2 0.00 0.00 0.00 86 1018.1
20260903001317 15 265 1.6 3.2 0.00 0.00 0.00 86 1018.1
20260903000816 15 265 1.6 3.2 0.00 0.00 0.00 86 1018.1
20260903000314 15 265 0.0 1.6 0.00 0.00 0.00 86 1018.0
20260902235814 15 265 0.0 3.2 0.00 0.00 0.00 85 1018.0
20260902235315 15 265 1.6 3.2 0.00 0.00 0.00 85 1018.0
20260902234815 15 265 1.6 3.2 0.00 0.00 0.00 85 1018.1
20260902234335 15 265 1.6 4.8 0.00 0.00 0.00 85 1018.1
20260902233815 15 265 3.2 4.8 0.00 0.00 0.00 85 1018.1
20260902233335 15 256 1.6 4.8 0.00 0.00 0.00 85 1018.1
20260902232816 15 249 1.6 3.2 0.00 0.00 0.00 85 1018.1
20260902232319 15 243 1.6 4.8 0.00 0.00 0.00 85 1018.0
20260902231821 15 262 1.6 4.8 0.00 0.00 0.00 85 1018.1
20260902231324 15 259 3.2 4.8 0.00 0.00 0.00 86 1018.1
20260902230827 15 256 3.2 4.8 0.00 0.00 0.00 86 1018.1
20260902230329 15 259 1.6 3.2 0.00 0.00 0.00 86 1018.1
20260902225831 15 226 0.0 1.6 0.00 0.00 0.00 85 1018.0
20260902225353 15 226 0.0 3.2 0.00 0.00 0.00 84 1018.1
20260902224813 15 226 1.6 3.2 0.00 0.00 0.00 84 1018.1
20260902224313 15 213 1.6 3.2 0.00 0.00 0.00 84 1018.1
20260902223813 15 262 1.6 4.8 0.00 0.00 0.00 84 1018.1
20260902223313 15 248 1.6 3.2 0.00 0.00 0.00 84 1018.1
20260902222815 15 264 1.6 3.2 0.00 0.00 0.00 84 1018.2
20260902222318 15 226 1.6 3.2 0.00 0.00 0.00 84 1018.2
20260902221820 15 224 0.0 3.2 0.00 0.00 0.00 83 1018.2
20260902221322 16 223 1.6 3.2 0.00 0.00 0.00 83 1018.3
20260902220824 16 254 0.0 1.6 0.00 0.00 0.00 83 1018.2
20260902220327 16 254 0.0 1.6 0.00 0.00 0.00 83 1018.3
20260902215828 16 254 0.0 1.6 0.00 0.00 0.00 83 1018.3
20260902215351 16 254 0.0 1.6 0.00 0.00 0.00 82 1018.3
20260902214814 16 254 1.6 3.2 0.00 0.00 0.00 82 1018.3
20260902214316 16 254 1.6 3.2 0.00 0.00 0.00 82 1018.3
20260902213816 16 250 1.6 3.2 0.00 0.00 0.00 81 1018.3
20260902213317 16 237 0.0 3.2 0.00 0.00 0.00 82 1018.3
20260902212815 16 209 1.6 3.2 0.00 0.00 0.00 83 1018.3
20260902212317 15 243 0.0 1.6 0.00 0.00 0.00 84 1018.3
20260902211820 15 243 0.0 0.0 0.00 0.00 0.00 84 1018.2
20260902211322 16 243 0.0 0.0 0.00 0.00 0.00 84 1018.2
20260902210824 16 243 0.0 1.6 0.00 0.00 0.00 84 1018.2
20260902210327 16 243 0.0 3.2 0.00 0.00 0.00 83 1018.2
20260902205829 16 229 1.6 3.2 0.00 0.00 0.00 83 1018.2
20260902205332 16 222 0.0 0.0 0.00 0.00 0.00 83 1018.1
20260902204814 16 222 0.0 1.6 0.00 0.00 0.00 82 1018.0
20260902204316 16 222 0.0 3.2 0.00 0.00 0.00 82 1018.1
20260902203818 16 222 0.0 3.2 0.00 0.00 0.00 83 1018.1
20260902203321 16 222 0.0 3.2 0.00 0.00 0.00 83 1018.2
20260902202823 16 238 1.6 3.2 0.00 0.00 0.00 83 1018.2
20260902202347 16 215 0.0 1.6 0.00 0.00 0.00 84 1018.2
20260902201828 16 215 0.0 1.6 0.00 0.00 0.00 85 1018.2
20260902201331 16 215 0.0 0.0 0.00 0.00 0.00 85 1018.2
20260902200815 16 215 0.0 1.6 0.00 0.00 0.00 85 1018.2
20260902200319 16 215 0.0 3.2 0.00 0.00 0.00 85 1018.2
20260902195830 16 215 1.6 3.2 0.00 0.00 0.00 87 1018.2
20260902195314 16 219 1.6 3.2 0.00 0.00 0.00 88 1018.2
20260902194816 16 120 0.0 0.0 0.00 0.00 0.00 88 1018.3
20260902194314 16 120 0.0 0.0 0.00 0.00 0.00 88 1018.2
20260902193817 16 120 0.0 0.0 0.00 0.00 0.00 88 1018.2
20260902193318 16 120 0.0 0.0 0.00 0.00 0.00 87 1018.2
20260902192819 16 120 0.0 0.0 0.00 0.00 0.00 87 1018.2
20260902192321 16 120 0.0 0.0 0.00 0.00 0.00 87 1018.2
20260902191820 17 120 0.0 0.0 0.00 0.00 0.00 87 1018.2
20260902191341 17 120 0.0 0.0 0.00 0.00 0.00 87 1018.2
20260902190841 17 120 0.0 0.0 0.00 0.00 0.00 86 1018.2
20260902190321 17 120 0.0 0.0 0.00 0.00 0.00 85 1018.2
20260902185822 17 120 0.0 0.0 0.00 0.00 0.00 84 1018.2
20260902185322 17 120 0.0 0.0 0.00 0.00 0.00 84 1018.1
20260902184823 18 120 0.0 0.0 0.00 0.00 0.00 84 1018.2
20260902184324 18 120 0.0 0.0 0.00 0.00 0.00 83 1018.1
20260902183842 18 120 0.0 0.0 0.00 0.00 0.00 82 1018.2
20260902183322 18 120 0.0 0.0 0.00 0.00 0.00 81 1018.1
20260902182844 18 120 0.0 0.0 0.00 0.00 0.00 81 1018.1
20260902182326 18 120 0.0 0.0 0.00 0.00 0.00 81 1017.9
20260902181849 18 120 0.0 0.0 0.00 0.00 0.00 81 1018.0
20260902181331 19 120 0.0 0.0 0.00 0.00 0.00 81 1017.9
20260902180813 19 120 0.0 0.0 0.00 0.00 0.00 81 1017.7
20260902180315 19 120 0.0 0.0 0.00 0.00 0.00 80 1017.7
20260902175816 19 120 0.0 1.6 0.00 0.00 0.00 80 1017.7
20260902175317 20 120 0.0 1.6 0.00 0.00 0.00 79 1017.7
20260902174817 20 120 0.0 1.6 0.00 0.00 0.00 78 1017.7
20260902174319 20 120 0.0 1.6 0.00 0.00 0.00 77 1017.6
20260902173821 20 120 0.0 0.0 0.00 0.00 0.00 76 1017.7
20260902173324 20 120 0.0 0.0 0.00 0.00 0.00 75 1017.6
20260902172826 20 120 0.0 0.0 0.00 0.00 0.00 74 1017.7
20260902172329 20 120 0.0 0.0 0.00 0.00 0.00 73 1017.7
20260902171812 21 120 0.0 1.6 0.00 0.00 0.00 73 1017.6
20260902171313 21 120 0.0 1.6 0.00 0.00 0.00 71 1017.6
20260902170813 21 120 0.0 1.6 0.00 0.00 0.00 69 1017.6
20260902170318 21 120 0.0 3.2 0.00 0.00 0.00 71 1017.5
20260902165841 21 120 1.6 3.2 0.00 0.10 0.00 72 1017.5
20260902165331 21 136 1.6 3.2 0.00 0.10 0.00 69 1017.5
20260902164813 21 13 0.0 3.2 0.00 0.10 0.00 68 1017.6
20260902164314 21 13 0.0 3.2 0.00 0.10 0.00 67 1017.6
20260902163814 21 13 0.0 1.6 0.00 0.10 0.00 68 1017.6
20260902163316 21 13 0.0 0.0 0.00 0.10 0.00 67 1017.7
20260902162838 21 13 0.0 0.0 0.00 0.10 0.00 66 1017.8
20260902162318 21 13 0.0 0.0 0.00 0.10 0.00 65 1017.8
20260902161838 22 13 0.0 0.0 0.00 0.10 0.00 62 1017.9
20260902161316 21 13 0.0 1.6 0.00 0.10 0.00 62 1017.9
20260902160816 22 13 0.0 1.6 0.00 0.10 0.00 64 1018.0
20260902160319 22 13 0.0 3.2 0.00 0.10 0.00 63 1018.0
20260902155822 22 276 0.0 3.2 0.00 0.10 0.00 63 1018.1
20260902155326 22 274 0.0 3.2 0.00 0.10 0.00 63 1018.1
20260902154828 22 274 1.6 3.2 0.00 0.10 0.00 63 1018.2
20260902154332 22 284 1.6 3.2 0.00 0.10 0.00 62 1018.2
20260902153816 22 312 0.0 3.2 0.00 0.10 0.00 62 1018.2
20260902153338 22 304 1.6 3.2 0.00 0.10 0.00 62 1018.3
20260902152817 22 299 0.0 6.4 0.00 0.10 0.00 62 1018.3
20260902152317 22 328 3.2 6.4 0.00 0.10 0.00 63 1018.3
20260902151817 22 357 3.2 6.4 0.00 0.10 0.00 62 1018.3
20260902151337 22 278 1.6 6.4 0.00 0.10 0.00 61 1018.3
20260902150817 22 323 3.2 6.4 0.00 0.10 0.00 60 1018.4
20260902150318 22 39 1.6 8.0 0.00 0.10 0.00 61 1018.4
20260902145819 22 265 3.2 8.0 0.00 0.10 0.00 63 1018.4
20260902145342 22 321 3.2 8.0 0.00 0.10 0.00 62 1018.5
20260902144823 22 4 3.2 8.0 0.00 0.10 0.00 63 1018.5
20260902144326 21 316 3.2 11.3 0.00 0.10 0.00 64 1018.5
20260902143828 22 354 4.8 11.3 0.00 0.10 0.00 63 1018.5
20260902143322 22 355 4.8 11.3 0.00 0.10 0.00 62 1018.6
20260902142823 22 303 4.8 11.3 0.00 0.10 0.00 62 1018.6
20260902142324 22 273 1.6 11.3 0.00 0.10 0.00 62 1018.6
20260902141827 22 22 6.4 11.3 0.00 0.10 0.00 61 1018.5
20260902141330 22 266 3.2 16.1 0.00 0.10 0.00 60 1018.5
20260902140813 22 262 8.0 16.1 0.00 0.10 0.00 59 1018.5
20260902140315 22 266 8.0 14.5 0.00 0.10 0.00 59 1018.6
20260902135837 22 278 6.4 12.9 0.00 0.10 0.00 61 1018.6
20260902135319 22 208 6.4 12.9 0.00 0.10 0.00 60 1018.6
20260902134820 22 236 4.8 14.5 0.00 0.10 0.00 60 1018.6
20260902134323 22 274 6.4 16.1 0.00 0.10 0.00 60 1018.6
20260902133824 22 254 6.4 16.1 0.00 0.10 0.00 60 1018.7
20260902133327 22 267 6.4 12.9 0.00 0.10 0.00 60 1018.8
20260902132829 22 277 8.0 14.5 0.00 0.10 0.00 61 1018.8
20260902132331 22 285 8.0 14.5 0.00 0.10 0.00 62 1018.8
20260902131834 22 250 3.2 11.3 0.00 0.10 0.00 62 1018.8
20260902131316 22 258 6.4 12.9 0.00 0.10 0.00 61 1018.8
20260902130821 22 273 6.4 12.9 0.00 0.10 0.00 60 1018.8
20260902130321 22 242 4.8 14.5 0.00 0.10 0.00 61 1018.8
20260902125842 22 207 4.8 14.5 0.00 0.10 0.00 62 1018.8
20260902125317 21 278 6.4 14.5 0.00 0.10 0.00 63 1018.9
20260902124820 21 259 6.4 14.5 0.00 0.10 0.00 62 1019.0
20260902124323 21 265 6.4 14.5 0.00 0.10 0.00 63 1019.0
20260902123824 21 281 6.4 12.9 0.00 0.10 0.00 63 1019.0
20260902123329 21 255 6.4 16.1 0.00 0.10 0.00 64 1019.1
20260902122813 21 252 6.4 16.1 0.00 0.10 0.00 64 1019.1
20260902122318 21 275 6.4 16.1 0.00 0.10 0.00 64 1019.1
20260902121823 21 225 11.3 17.7 0.00 0.10 0.00 63 1019.2
20260902121328 21 263 8.0 17.7 0.00 0.10 0.00 64 1019.2
20260902120316 21 278 3.2 12.9 0.00 0.10 0.00 64 1019.2
20260902115817 21 219 8.0 14.5 0.00 0.10 0.00 64 1019.2
20260902115347 21 257 3.2 11.3 0.00 0.10 0.00 65 1019.3
20260902114812 21 258 3.2 11.3 0.00 0.10 0.00 65 1019.2
20260902114317 21 222 6.4 14.5 0.00 0.10 0.00 63 1019.3
20260902113817 21 202 6.4 14.5 0.00 0.10 0.00 63 1019.3
20260902113337 21 245 3.2 16.1 0.00 0.10 0.00 63 1019.4
20260902112817 21 283 9.7 19.3 0.00 0.10 0.00 62 1019.4
20260902112318 21 242 4.8 11.3 0.00 0.10 0.00 63 1019.4
20260902111818 21 274 6.4 12.9 0.00 0.10 0.00 62 1019.4
20260902111319 21 274 6.4 12.9 0.00 0.10 0.00 62 1019.6
20260902110820 21 281 3.2 17.7 0.00 0.10 0.00 62 1019.5
20260902110321 21 279 1.6 17.7 0.00 0.10 0.00 64 1019.5
20260902105824 21 3 4.8 11.3 0.00 0.10 0.00 63 1019.5
20260902105327 21 250 3.2 9.7 0.00 0.10 0.00 64 1019.5
20260902104829 21 345 6.4 11.3 0.00 0.10 0.00 64 1019.6
20260902104330 21 266 3.2 11.3 0.00 0.10 0.00 64 1019.7
20260902103830 21 248 4.8 11.3 0.00 0.10 0.00 64 1019.7
20260902103330 21 264 4.8 9.7 0.00 0.10 0.00 65 1019.7
20260902102831 21 231 3.2 12.9 0.00 0.10 0.00 65 1019.7
20260902102348 21 262 4.8 12.9 0.00 0.10 0.00 65 1019.8
20260902101813 21 283 4.8 9.7 0.00 0.10 0.00 65 1019.8
20260902101316 21 274 4.8 14.5 0.00 0.10 0.00 65 1019.8
20260902100819 21 219 6.4 14.5 0.00 0.10 0.00 65 1019.8
20260902100322 21 267 8.0 19.3 0.00 0.10 0.00 64 1019.9
20260902095825 21 273 4.8 19.3 0.00 0.10 0.00 66 1019.9
20260902095344 21 276 4.8 9.7 0.00 0.10 0.00 66 1020.0
20260902094826 20 273 4.8 8.0 0.00 0.10 0.00 68 1020.0
20260902094329 20 267 3.2 9.7 0.00 0.10 0.00 68 1020.0
20260902093852 20 282 4.8 11.3 0.00 0.10 0.00 67 1019.9
20260902093334 20 255 6.4 11.3 0.00 0.10 0.00 67 1020.1
20260902092815 20 284 4.8 12.9 0.00 0.10 0.00 68 1020.1
20260902092339 20 252 4.8 14.5 0.00 0.10 0.00 68 1020.2
20260902091823 20 243 8.0 14.5 0.00 0.10 0.00 68 1020.1
20260902091324 20 255 4.8 12.9 0.00 0.10 0.00 70 1020.1
20260902090849 20 207 6.4 16.1 0.00 0.10 0.00 70 1020.2
20260902090330 20 274 3.2 11.3 0.00 0.10 0.00 70 1020.2
20260902085835 20 274 4.8 11.3 0.00 0.10 0.00 69 1020.2
20260902085315 20 284 3.2 9.7 0.00 0.10 0.00 70 1020.2
20260902084816 20 263 3.2 8.0 0.00 0.10 0.00 71 1020.1